[[{"header":{"parameterUnit":"m.s-1","parameterCategory":2,"la1":30.2991,"la2":30.254,"lo1":-89.0895,"lo2":-89.0444,"dy":0.0017,"dx":0.0017,"nx":28,"ny":28,"refTime":"2025-11-06T03:00:00:Z","depth":"0","parameterNumber":2,"parameterNumberName":"U-component_of_CURRENTS"},"data":[0,0,0,0,0,0,0,0,0,0,0,0,0,0,0,0,0,0,0,0,0,0,0,0,0,0,0,0,0,0,0,0,0,0,0,0,0,0,0,0,0,0,0,0,0,0,0,0,0,0,0,0,0,0,0,0,0,0,-0.2766,-0.2767,0,-0.2799,-0.28,-0.28,-0.2804,-0.2804,-0.2803,-0.2803,-0.289,-0.2892,-0.2895,0,0,0,0,0,0,0,0,0,0,0,0,0,-0.2797,-0.2796,-0.2766,-0.2767,-0.2767,-0.2799,-0.28,-0.2801,-0.2804,-0.2804,-0.2803,-0.2802,-0.2889,-0.2892,-0.2895,0,0,0,0,0,0,0,0,0,0,0,0,0,-0.2804,-0.2795,-0.2766,-0.2771,-0.2772,-0.2799,-0.28,-0.2801,-0.2805,-0.2804,-0.2803,-0.2802,-0.2888,-0.2892,-0.2896,-0.2938,0,0,-0.2909,-0.2911,0,0,0,0,0,0,0,0,-0.2803,-0.2803,-0.277,-0.2771,-0.2771,-0.2795,-0.2842,-0.2849,-0.2805,-0.2794,-0.2803,-0.2802,-0.2862,-0.2868,-0.2879,-0.2942,-0.2946,-0.2909,-0.2912,-0.2914,-0.2915,0,0,0,0,0,0,0,-0.2803,-0.2802,-0.2782,-0.277,-0.2771,-0.2802,-0.2802,-0.2844,-0.2835,-0.2795,-0.2795,-0.2795,-0.2863,-0.2875,-0.2881,-0.2947,-0.2909,-0.2913,-0.2915,-0.2917,-0.3044,-0.3045,0,0,0,0,0,0,-0.279,-0.2801,-0.2781,-0.2782,-0.2783,-0.2802,-0.2801,-0.279,-0.2834,-0.2838,-0.2796,-0.2795,-0.2868,-0.2876,-0.2884,-0.2907,-0.2914,-0.2918,-0.292,-0.3043,-0.3044,-0.3045,0,0,0,0,0,0,-0.279,-0.2788,-0.2779,-0.2792,-0.2792,-0.2801,-0.2789,-0.2791,-0.2794,-0.2833,-0.2839,-0.2795,-0.2868,-0.2878,-0.2909,-0.2911,-0.2919,-0.2923,-0.3042,-0.3043,-0.3045,-0.2971,0,0,0,0,0,0,-0.2791,-0.2787,-0.2774,-0.279,-0.2791,-0.2774,-0.279,-0.2792,-0.2795,-0.2794,-0.2835,-0.2842,-0.2868,-0.2902,-0.2913,-0.2917,-0.2927,-0.3041,-0.3043,-0.3044,-0.2972,-0.297,-0.2967,0,0,0,0,0,-0.2792,-0.2767,-0.2773,-0.2771,-0.2773,-0.2773,-0.2776,-0.2783,-0.2795,-0.2785,-0.2819,-0.284,-0.2921,-0.2906,-0.2919,-0.2924,-0.304,-0.3042,-0.3044,-0.2974,-0.297,-0.2967,0,0,0,0,0,0,-0.2768,-0.2766,-0.2773,-0.2747,-0.2753,-0.2772,-0.2764,-0.278,-0.2801,-0.2802,-0.2847,-0.2856,-0.2888,-0.2922,-0.2905,-0.2969,-0.2987,-0.2991,-0.2929,-0.2927,-0.2924,-0.2917,-0.293,0,0,0,0,0,-0.2759,-0.2742,-0.275,-0.2731,-0.273,-0.2752,-0.2755,-0.276,-0.2781,-0.2789,-0.2823,-0.2867,-0.2909,-0.2927,-0.2968,-0.2999,-0.2977,-0.3016,-0.3013,-0.301,-0.3016,-0.2942,-0.2931,-0.3051,-0.3051,-0.3051,0,0,-0.2745,-0.2742,-0.2732,-0.2726,-0.2733,-0.2741,-0.2751,-0.2745,-0.2764,-0.2798,-0.2831,-0.2859,-0.2918,-0.2948,-0.2966,-0.2972,-0.2967,-0.3013,-0.3009,-0.3017,-0.2942,-0.2929,-0.2918,-0.3053,-0.3052,-0.3052,0,0,-0.271,-0.2705,-0.2682,-0.2695,-0.2699,-0.2717,-0.2714,-0.2732,-0.2746,-0.2776,-0.2812,-0.2832,-0.2902,-0.2931,-0.2961,-0.2974,-0.2956,-0.2996,-0.2973,-0.29,-0.2887,-0.2877,-0.2827,-0.2813,-0.2992,-0.2992,-0.2992,0,-0.2696,-0.2673,-0.2676,-0.2675,-0.2687,-0.2708,-0.2707,-0.2733,-0.2762,-0.2763,-0.2777,-0.2837,-0.2896,-0.2916,-0.2941,-0.2965,-0.2922,-0.2971,-0.2889,-0.2878,-0.2868,-0.2821,-0.2805,-0.2988,-0.2989,-0.2989,-0.2989,0,-0.2646,-0.2651,-0.2641,-0.2653,-0.2664,-0.2663,-0.2701,-0.2711,-0.2734,-0.2748,-0.2755,-0.2804,-0.283,-0.2861,-0.2923,-0.2896,-0.2887,-0.2887,-0.2881,-0.285,-0.2804,-0.2789,-0.2984,-0.2985,-0.2986,-0.2987,0,0,-0.2565,-0.2599,-0.2599,-0.2602,-0.2656,-0.2641,-0.2688,-0.2699,-0.269,-0.2715,-0.2692,-0.2779,-0.2769,-0.2806,-0.2847,-0.2815,-0.2739,-0.2833,-0.283,-0.2757,-0.2572,-0.252,-0.2499,-0.2697,-0.2694,-0.2692,-0.2563,0,-0.2529,-0.2512,-0.2554,-0.2557,-0.2554,-0.2611,-0.2641,-0.2659,-0.2677,-0.2663,-0.2684,-0.2686,-0.2758,-0.2752,-0.2732,-0.2752,-0.2697,-0.2775,-0.2639,-0.2636,-0.2568,-0.2479,-0.2366,-0.2236,-0.2549,-0.2546,-0.2545,0,-0.246,-0.2466,-0.2457,-0.2492,-0.2492,-0.2505,-0.2513,-0.2542,-0.2559,-0.2568,-0.2557,-0.2576,-0.2586,-0.2622,-0.2577,-0.2613,-0.2595,-0.2587,-0.258,-0.2549,-0.2555,-0.2323,-0.2197,-0.2189,-0.2522,-0.2524,-0.2525,0,-0.2362,-0.239,-0.2373,-0.2392,-0.2442,-0.244,-0.2459,-0.2489,-0.2496,-0.2489,-0.2474,-0.2462,-0.2457,-0.2418,-0.2474,-0.2497,-0.2393,-0.2408,-0.2324,-0.2321,-0.2212,-0.2203,-0.2038,-0.2316,-0.2316,-0.2316,-0.2317,0,-0.2304,-0.2287,-0.2315,-0.2312,-0.227,-0.2338,-0.2307,-0.2329,-0.2357,-0.2343,-0.2399,-0.2379,-0.2401,-0.2379,-0.2399,-0.2324,-0.2318,-0.2296,-0.2266,-0.2187,-0.2178,-0.216,-0.2206,-0.2311,-0.2313,-0.2313,-0.2314,0,-0.22,-0.2235,-0.22,-0.2227,-0.2227,-0.2183,-0.222,-0.2202,-0.2249,-0.2233,-0.223,-0.2288,-0.2257,-0.2271,-0.2224,-0.2218,-0.2114,-0.2131,-0.2059,-0.2022,-0.192,-0.1968,-0.1813,-0.1765,-0.1974,-0.1972,-0.197,0,-0.2139,-0.2119,-0.2103,-0.2074,-0.2084,-0.2057,-0.2056,-0.2122,-0.2127,-0.2181,-0.2162,-0.2154,-0.213,-0.2051,-0.2022,-0.1953,-0.2002,-0.1823,-0.1848,-0.1868,-0.19,-0.1954,-0.1931,-0.1674,-0.167,-0.1667,-0.1664,0,-0.2021,-0.2013,-0.1978,-0.1931,-0.1906,-0.1891,-0.1902,-0.1898,-0.1987,-0.199,-0.1997,-0.1978,-0.1931,-0.1821,-0.1762,-0.1727,-0.1769,-0.1747,-0.1756,-0.1633,-0.169,-0.1645,-0.1845,-0.1633,-0.1636,-0.1638,-0.164,-0.1641,-0.1903,-0.1834,-0.1798,-0.174,-0.1728,-0.1717,-0.1673,-0.172,-0.1712,-0.1712,-0.1793,-0.1737,-0.1688,-0.1575,-0.1539,-0.1439,-0.1531,-0.14,-0.1451,-0.1501,-0.1462,-0.1614,-0.1386,-0.1387,-0.1389,-0.139,-0.1391,0,-0.174,-0.1685,-0.1622,-0.1555,-0.1512,-0.1561,-0.156,-0.1519,-0.1479,-0.1514,-0.1497,-0.1448,-0.1332,-0.1315,-0.1228,-0.117,-0.1166,-0.1162,-0.1204,-0.1189,-0.1276,-0.1271,-0.1021,-0.1021,-0.1021,-0.1021,-0.1021,-0.1021,-0.1646,-0.1521,-0.1489,-0.1358,-0.1333,-0.1247,-0.1224,-0.1191,-0.1189,-0.1134,-0.1127,-0.1152,-0.1159,-0.122,-0.1126,-0.1067,-0.1077,-0.103,-0.1099,-0.1173,-0.12,-0.1226,-0.1228,-0.0973,-0.0973,-0.0941,-0.0941,-0.0941]},{"header":{"parameterUnit":"m.s-1","parameterCategory":2,"la1":30.2991,"la2":30.254,"lo1":-89.0895,"lo2":-89.0444,"dy":0.0017,"dx":0.0017,"nx":28,"ny":28,"refTime":"2025-11-06T03:00:00:Z","depth":"0","parameterNumber":3,"parameterNumberName":"V-component_of_CURRENTS"},"data":[0,0,0,0,0,0,0,0,0,0,0,0,0,0,0,0,0,0,0,0,0,0,0,0,0,0,0,0,0,0,0,0,0,0,0,0,0,0,0,0,0,0,0,0,0,0,0,0,0,0,0,0,0,0,0,0,0,0,-0.0027,-0.0026,0,0.0092,0.0093,0.0095,0.0164,0.0164,0.0164,0.0164,0.0341,0.0346,0.035,0,0,0,0,0,0,0,0,0,0,0,0,0,-0.0144,-0.0142,-0.0027,-0.0026,-0.0025,0.0092,0.0093,0.0095,0.0164,0.0164,0.0164,0.0164,0.034,0.0345,0.0351,0,0,0,0,0,0,0,0,0,0,0,0,0,-0.0064,-0.0142,-0.0028,0.0021,0.0027,0.0091,0.0094,0.0096,0.0164,0.0164,0.0164,0.0164,0.0338,0.0345,0.0352,0.0395,0,0,0.0373,0.0376,0,0,0,0,0,0,0,0,-0.0068,-0.0059,0.0013,0.0018,0.0024,0.0111,0.0117,0.0198,0.0164,0.0115,0.0164,0.0164,0.0268,0.0281,0.0306,0.0403,0.0411,0.0374,0.0378,0.0381,0.0383,0,0,0,0,0,0,0,-0.0074,-0.0064,0.0023,0.0014,0.0021,0.0055,0.0066,0.0133,0.0193,0.0119,0.0123,0.0132,0.0272,0.0299,0.0311,0.0414,0.0374,0.038,0.0384,0.0387,0.0558,0.0559,0,0,0,0,0,0,-0.0097,-0.0069,0.0019,0.0026,-0.0026,0.0056,0.0069,0.0085,0.0191,0.0206,0.0132,0.0135,0.0287,0.0302,0.0317,0.0345,0.0381,0.0388,0.0392,0.0558,0.0559,0.0559,0,0,0,0,0,0,-0.0099,-0.009,0.0014,-0.0021,-0.0006,0.0058,0.0075,0.0087,0.0112,0.02,0.0217,0.0144,0.0287,0.0307,0.0373,0.0354,0.0391,0.0397,0.0558,0.0558,0.0559,0.0421,0,0,0,0,0,0,-0.0103,-0.0091,-0.0091,-0.0023,-0.0005,0.004,0.0075,0.0089,0.0116,0.0121,0.0216,0.0232,0.0289,0.0362,0.038,0.0364,0.0403,0.0557,0.0558,0.0559,0.0425,0.0416,0.0409,0,0,0,0,0,-0.0108,-0.0108,-0.0091,-0.0081,-0.0005,0.0039,0.0051,0.0099,0.0116,0.0122,0.0189,0.0229,0.0379,0.0368,0.039,0.0375,0.0557,0.0558,0.0559,0.0428,0.0418,0.0409,0,0,0,0,0,0,-0.0165,-0.0099,-0.008,-0.0062,-0.0022,0.0049,0.0059,0.0092,0.015,0.0156,0.0239,0.026,0.031,0.037,0.0357,0.0429,0.0473,0.0478,0.0367,0.0358,0.035,0.0335,0.0409,0,0,0,0,0,-0.0178,-0.0157,-0.0097,-0.0086,-0.0068,-0.0006,0.0017,0.0048,0.0108,0.0133,0.0198,0.0271,0.0331,0.0364,0.0432,0.0474,0.0518,0.048,0.0472,0.0465,0.0469,0.0494,0.0487,0.0561,0.0561,0.0561,0,0,-0.02,-0.0161,-0.0151,-0.0097,-0.006,-0.0041,0.0008,0.0036,0.0052,0.0145,0.0186,0.0249,0.034,0.0382,0.0409,0.0427,0.047,0.0466,0.0458,0.0467,0.0494,0.0486,0.0479,0.0562,0.0562,0.0561,0,0,-0.0233,-0.0198,-0.0191,-0.0161,-0.0112,-0.0073,-0.007,-0.0003,0.0025,0.0075,0.0139,0.0188,0.029,0.0337,0.0378,0.0373,0.0429,0.0394,0.0336,0.0359,0.0352,0.0347,0.0392,0.0391,0.0385,0.0385,0.0385,0,-0.0268,-0.0246,-0.0187,-0.0174,-0.0161,-0.0094,-0.0095,-0.0052,0.0025,0.0044,0.0072,0.0199,0.0267,0.0311,0.0309,0.0351,0.0382,0.0354,0.0344,0.0339,0.0336,0.0384,0.0385,0.0378,0.0379,0.038,0.038,0,-0.0286,-0.0278,-0.0274,-0.0235,-0.0212,-0.0203,-0.0144,-0.0118,-0.0077,-0.0032,0.0021,0.011,0.0182,0.0204,0.0259,0.0269,0.0305,0.0326,0.0353,0.0319,0.0374,0.0377,0.0369,0.0371,0.0373,0.0375,0,0,-0.0351,-0.0299,-0.0301,-0.0302,-0.0248,-0.0233,-0.0212,-0.0174,-0.0163,-0.0095,-0.0077,0.0015,0.0059,0.0109,0.0171,0.0193,0.0196,0.0241,0.0245,0.0262,0.0257,0.0302,0.0311,0.0201,0.0201,0.0201,0.0302,0,-0.0392,-0.0393,-0.0351,-0.0366,-0.0368,-0.0312,-0.0298,-0.0254,-0.0204,-0.0166,-0.0089,-0.0036,0.0024,0.0051,0.0079,0.0179,0.02,0.0168,0.0311,0.0316,0.0338,0.0315,0.0355,0.0449,0.0306,0.0307,0.0308,0,-0.0426,-0.0424,-0.0446,-0.0436,-0.0432,-0.0426,-0.0402,-0.0379,-0.0308,-0.0268,-0.0213,-0.0137,-0.0071,-0.0025,0.0098,0.0072,0.0153,0.0221,0.0226,0.0321,0.0368,0.0465,0.0463,0.0592,0.0314,0.0314,0.0313,0,-0.0501,-0.0495,-0.052,-0.0515,-0.0486,-0.0489,-0.0471,-0.0414,-0.0397,-0.033,-0.0304,-0.0217,-0.0159,-0.0065,0.0095,0.0089,0.0232,0.0244,0.036,0.0365,0.0458,0.0471,0.0579,0.0311,0.0311,0.0311,0.031,0,-0.0564,-0.0584,-0.0556,-0.0572,-0.0599,-0.0556,-0.0568,-0.0532,-0.0483,-0.046,-0.0363,-0.0316,-0.0171,-0.0059,0.0068,0.0238,0.0213,0.0354,0.0388,0.0414,0.0422,0.0588,0.0636,0.0315,0.0314,0.0313,0.0312,0,-0.0636,-0.062,-0.0646,-0.0634,-0.0633,-0.065,-0.0627,-0.0628,-0.0573,-0.054,-0.0521,-0.0389,-0.0233,-0.0072,0.0108,0.0213,0.0453,0.0427,0.0462,0.0498,0.0709,0.0747,0.0902,0.0986,0.0561,0.0563,0.0564,0,-0.0668,-0.069,-0.0695,-0.0709,-0.0705,-0.0717,-0.0721,-0.0678,-0.0668,-0.0571,-0.0556,-0.0405,-0.0268,0.0019,0.0227,0.0452,0.0545,0.0605,0.0596,0.073,0.0798,0.0819,0.088,0.0674,0.0677,0.0678,0.068,0,-0.0729,-0.0727,-0.0741,-0.0772,-0.0787,-0.0803,-0.08,-0.0808,-0.0747,-0.069,-0.0576,-0.0458,-0.0169,0.0111,0.0391,0.0526,0.0704,0.0647,0.0774,0.0887,0.0929,0.1024,0.0614,0.0696,0.0694,0.0693,0.0692,0.0691,-0.0761,-0.0782,-0.0794,-0.0822,-0.0845,-0.0869,-0.0875,-0.0851,-0.0815,-0.0702,-0.0587,-0.0353,0.0017,0.043,0.0578,0.0893,0.0853,0.0989,0.1024,0.1033,0.1112,0.0742,0.0863,0.0862,0.0862,0.0861,0.0861,0,-0.0789,-0.0806,-0.0839,-0.0867,-0.09,-0.0897,-0.0907,-0.088,-0.0819,-0.0672,-0.0515,-0.0041,0.0331,0.0669,0.109,0.1261,0.1296,0.1344,0.1389,0.1434,0.1109,0.1111,0.1304,0.1304,0.1303,0.1303,0.1303,0.1303,-0.0802,-0.0831,-0.0844,-0.0896,-0.0919,-0.0935,-0.0934,-0.0868,-0.0754,-0.0468,-0.0177,0.007,0.0565,0.1172,0.1561,0.1602,0.1752,0.1732,0.181,0.1589,0.1558,0.1529,0.1544,0.1824,0.1825,0.2137,0.214,0.2142]}],[{"header":{"parameterUnit":"m.s-1","parameterCategory":2,"la1":30.2991,"la2":30.254,"lo1":-89.0895,"lo2":-89.0444,"dy":0.0017,"dx":0.0017,"nx":28,"ny":28,"refTime":"2025-11-06T03:00:00:Z","depth":"2","parameterNumber":2,"parameterNumberName":"U-component_of_CURRENTS"},"data":[0,0,0,0,0,0,0,0,0,0,0,0,0,0,0,0,0,0,0,0,0,0,0,0,0,0,0,0,0,0,0,0,0,0,0,0,0,0,0,0,0,0,0,0,0,0,0,0,0,0,0,0,0,0,0,0,0,0,-0.1934,-0.1935,0,-0.2009,-0.201,-0.2011,-0.2027,-0.2026,-0.2025,-0.2025,-0.2028,-0.2028,-0.2029,0,0,0,0,0,0,0,0,0,0,0,0,0,-0.1804,-0.1807,-0.1934,-0.1935,-0.1936,-0.2008,-0.201,-0.2011,-0.2027,-0.2026,-0.2025,-0.2025,-0.2027,-0.2028,-0.2029,0,0,0,0,0,0,0,0,0,0,0,0,0,-0.1869,-0.1808,-0.1934,-0.1952,-0.1954,-0.2008,-0.201,-0.2011,-0.2027,-0.2026,-0.2025,-0.2024,-0.2027,-0.2028,-0.2029,-0.2055,0,0,-0.2032,-0.2033,0,0,0,0,0,0,0,0,-0.1866,-0.1874,-0.1948,-0.1951,-0.1953,-0.2006,-0.1965,-0.2022,-0.2027,-0.2001,-0.2025,-0.2024,-0.2014,-0.2016,-0.2035,-0.2055,-0.2055,-0.2032,-0.2033,-0.2033,-0.2034,0,0,0,0,0,0,0,-0.1861,-0.1871,-0.1965,-0.1949,-0.1952,-0.1955,-0.1963,-0.1976,-0.2011,-0.2003,-0.2004,-0.2011,-0.2015,-0.2034,-0.2035,-0.2056,-0.2032,-0.2033,-0.2034,-0.2034,-0.2119,-0.212,0,0,0,0,0,0,-0.1851,-0.1867,-0.1963,-0.1967,-0.1905,-0.1958,-0.1967,-0.1991,-0.2013,-0.2016,-0.2011,-0.2011,-0.2033,-0.2034,-0.2035,-0.2069,-0.2033,-0.2034,-0.2035,-0.2117,-0.2119,-0.2121,0,0,0,0,0,0,-0.1848,-0.186,-0.196,-0.1916,-0.1929,-0.1961,-0.1988,-0.1993,-0.2014,-0.202,-0.2021,-0.2027,-0.2032,-0.2033,-0.2054,-0.2069,-0.2035,-0.2036,-0.2115,-0.2118,-0.212,-0.2135,0,0,0,0,0,0,-0.1845,-0.1859,-0.1874,-0.1916,-0.1931,-0.1983,-0.1989,-0.1995,-0.2019,-0.202,-0.2033,-0.2033,-0.2031,-0.2052,-0.2055,-0.2069,-0.2037,-0.2113,-0.2116,-0.2119,-0.2133,-0.2138,-0.2143,0,0,0,0,0,-0.184,-0.1858,-0.1875,-0.1886,-0.1952,-0.1984,-0.1991,-0.2011,-0.2021,-0.2028,-0.2047,-0.2032,-0.2073,-0.2055,-0.2057,-0.2072,-0.2112,-0.2115,-0.2119,-0.2131,-0.2137,-0.2142,0,0,0,0,0,0,-0.179,-0.1863,-0.1882,-0.1917,-0.1945,-0.1985,-0.2,-0.2017,-0.2042,-0.2047,-0.205,-0.2052,-0.2077,-0.2079,-0.2058,-0.2109,-0.2092,-0.2096,-0.21,-0.2106,-0.2111,-0.2098,-0.2037,0,0,0,0,0,-0.1793,-0.1847,-0.1886,-0.1919,-0.1932,-0.1971,-0.1989,-0.2005,-0.2032,-0.2043,-0.2052,-0.2072,-0.2097,-0.2103,-0.212,-0.2145,-0.2119,-0.216,-0.2165,-0.2169,-0.2163,-0.2139,-0.214,-0.2133,-0.2133,-0.2133,0,0,-0.1797,-0.1833,-0.187,-0.1915,-0.1945,-0.1969,-0.1979,-0.201,-0.2033,-0.2038,-0.2069,-0.2087,-0.2109,-0.2139,-0.215,-0.2139,-0.2159,-0.2173,-0.2176,-0.2168,-0.2143,-0.2143,-0.2143,-0.2135,-0.2135,-0.2134,0,0,-0.1804,-0.1849,-0.1885,-0.1911,-0.1949,-0.1974,-0.1982,-0.2022,-0.2039,-0.2073,-0.209,-0.2119,-0.2146,-0.2169,-0.2185,-0.223,-0.2187,-0.2236,-0.2246,-0.2223,-0.2222,-0.2221,-0.2187,-0.2182,-0.2236,-0.2237,-0.2237,0,-0.1781,-0.1846,-0.1893,-0.1914,-0.1939,-0.1975,-0.1997,-0.2026,-0.2066,-0.2081,-0.208,-0.2138,-0.2164,-0.2201,-0.2228,-0.2239,-0.2207,-0.2217,-0.2225,-0.2224,-0.2223,-0.2187,-0.2182,-0.2238,-0.2238,-0.2237,-0.2237,0,-0.1816,-0.1859,-0.1876,-0.1931,-0.1957,-0.1986,-0.2025,-0.2051,-0.2077,-0.2099,-0.2133,-0.2166,-0.2195,-0.2219,-0.2242,-0.2259,-0.2232,-0.2231,-0.22,-0.2224,-0.2186,-0.218,-0.2239,-0.2239,-0.2239,-0.2238,0,0,-0.1771,-0.188,-0.1881,-0.1911,-0.1971,-0.1989,-0.2036,-0.2076,-0.2096,-0.2127,-0.2143,-0.221,-0.2214,-0.2234,-0.2258,-0.2254,-0.2239,-0.2242,-0.224,-0.2189,-0.2165,-0.2096,-0.2083,-0.2224,-0.2223,-0.2222,-0.2139,0,-0.1771,-0.182,-0.188,-0.1926,-0.1956,-0.2009,-0.2044,-0.2085,-0.2116,-0.2137,-0.217,-0.2193,-0.2222,-0.2234,-0.2238,-0.2244,-0.2225,-0.226,-0.2166,-0.2163,-0.2083,-0.2075,-0.192,-0.1827,-0.2134,-0.2133,-0.2132,0,-0.1774,-0.1811,-0.1857,-0.1934,-0.1948,-0.1975,-0.203,-0.2065,-0.2111,-0.2133,-0.2155,-0.2172,-0.22,-0.2207,-0.2194,-0.2207,-0.2188,-0.2179,-0.2175,-0.2099,-0.2084,-0.1857,-0.1805,-0.2122,-0.2123,-0.2124,-0.2125,0,-0.1718,-0.179,-0.183,-0.1857,-0.1941,-0.1964,-0.2001,-0.2056,-0.2078,-0.2117,-0.2124,-0.2147,-0.2151,-0.2136,-0.2147,-0.2158,-0.2104,-0.2114,-0.2024,-0.2018,-0.1862,-0.1844,-0.2077,-0.2077,-0.2077,-0.2077,-0.2078,0,-0.1699,-0.1725,-0.1805,-0.1826,-0.1848,-0.1922,-0.1945,-0.1988,-0.2036,-0.2048,-0.2104,-0.2104,-0.213,-0.2116,-0.2116,-0.2047,-0.2073,-0.2011,-0.1988,-0.1865,-0.1849,-0.2093,-0.2096,-0.2074,-0.2075,-0.2076,-0.2076,0,-0.1635,-0.1702,-0.1735,-0.1811,-0.1828,-0.1835,-0.1898,-0.1912,-0.1973,-0.1987,-0.1995,-0.2052,-0.2029,-0.2038,-0.2014,-0.1993,-0.195,-0.1917,-0.177,-0.1731,-0.1883,-0.1889,-0.179,-0.1787,-0.1784,-0.1782,-0.178,0,-0.161,-0.1627,-0.1687,-0.1693,-0.1724,-0.1753,-0.1772,-0.1857,-0.1875,-0.1948,-0.194,-0.1947,-0.1918,-0.1858,-0.1819,-0.1755,-0.1853,-0.1591,-0.1596,-0.1864,-0.1852,-0.1862,-0.1871,-0.1393,-0.1388,-0.1384,-0.1381,0,-0.1536,-0.1558,-0.1577,-0.1592,-0.161,-0.1631,-0.1669,-0.1677,-0.1773,-0.1787,-0.1796,-0.1779,-0.1734,-0.1601,-0.1543,-0.1503,-0.1592,-0.1506,-0.1799,-0.1502,-0.1486,-0.1476,-0.1498,-0.1345,-0.1349,-0.1351,-0.1353,-0.1355,-0.1448,-0.1438,-0.146,-0.1465,-0.1487,-0.1491,-0.147,-0.1519,-0.1524,-0.1524,-0.1599,-0.1524,-0.1517,-0.1329,-0.1263,-0.1222,-0.1339,-0.129,-0.1304,-0.1321,-0.1303,-0.1283,-0.11,-0.1102,-0.1104,-0.1105,-0.1107,0,-0.1326,-0.1333,-0.1332,-0.1335,-0.1314,-0.1368,-0.138,-0.1343,-0.1303,-0.132,-0.1296,-0.1153,-0.1049,-0.1055,-0.0921,-0.0902,-0.091,-0.0875,-0.0883,-0.0918,-0.0949,-0.0914,-0.0607,-0.0606,-0.0605,-0.0604,0,0,-0.1258,-0.1216,-0.1226,-0.1157,-0.116,-0.1094,-0.1075,-0.1038,-0.102,-0.0946,-0.0905,-0.0967,-0.0995,-0.0799,-0.0755,-0.0654,-0.0781,-0.0618,-0.1013,-0.1054,-0.1084,-0.1176,-0.1159,0,0,0,0,0]},{"header":{"parameterUnit":"m.s-1","parameterCategory":2,"la1":30.2991,"la2":30.254,"lo1":-89.0895,"lo2":-89.0444,"dy":0.0017,"dx":0.0017,"nx":28,"ny":28,"refTime":"2025-11-06T03:00:00:Z","depth":"2","parameterNumber":3,"parameterNumberName":"V-component_of_CURRENTS"},"data":[0,0,0,0,0,0,0,0,0,0,0,0,0,0,0,0,0,0,0,0,0,0,0,0,0,0,0,0,0,0,0,0,0,0,0,0,0,0,0,0,0,0,0,0,0,0,0,0,0,0,0,0,0,0,0,0,0,0,-0.0166,-0.0165,0,-0.0078,-0.0076,-0.0075,-0.0016,-0.0016,-0.0016,-0.0016,0.0132,0.0136,0.014,0,0,0,0,0,0,0,0,0,0,0,0,0,-0.0212,-0.0212,-0.0166,-0.0165,-0.0164,-0.0078,-0.0076,-0.0075,-0.0016,-0.0016,-0.0016,-0.0016,0.0131,0.0136,0.014,0,0,0,0,0,0,0,0,0,0,0,0,0,-0.0162,-0.0212,-0.0166,-0.0127,-0.0123,-0.0078,-0.0076,-0.0074,-0.0016,-0.0016,-0.0016,-0.0016,0.013,0.0135,0.0141,0.0174,0,0,0.0159,0.0161,0,0,0,0,0,0,0,0,-0.0165,-0.016,-0.0134,-0.013,-0.0125,-0.0061,-0.0038,0.0011,-0.0016,-0.0053,-0.0016,-0.0016,0.0071,0.0082,0.0102,0.0181,0.0188,0.0159,0.0163,0.0165,0.0167,0,0,0,0,0,0,0,-0.0169,-0.0163,-0.0127,-0.0133,-0.0128,-0.009,-0.0083,-0.0028,0.0011,-0.005,-0.0046,-0.0042,0.0074,0.0096,0.0106,0.019,0.0159,0.0164,0.0168,0.017,0.0317,0.0318,0,0,0,0,0,0,-0.019,-0.0167,-0.013,-0.0125,-0.0149,-0.009,-0.0082,-0.0079,0.0009,0.0021,-0.0042,-0.004,0.0086,0.0099,0.0111,0.014,0.0165,0.0171,0.0174,0.0317,0.0318,0.0318,0,0,0,0,0,0,-0.0192,-0.0188,-0.0134,-0.0146,-0.0137,-0.009,-0.0087,-0.0077,-0.0057,0.0014,0.0028,-0.0032,0.0087,0.0103,0.0156,0.0147,0.0173,0.0179,0.0317,0.0317,0.0318,0.0208,0,0,0,0,0,0,-0.0193,-0.0189,-0.0193,-0.0148,-0.0138,-0.0117,-0.0087,-0.0076,-0.0056,-0.0052,0.0027,0.0041,0.0088,0.0147,0.0162,0.0155,0.0183,0.0316,0.0317,0.0318,0.0211,0.0205,0.0199,0,0,0,0,0,-0.0195,-0.0206,-0.0194,-0.019,-0.0146,-0.0118,-0.0109,-0.0072,-0.0056,-0.0051,0.0003,0.0038,0.0163,0.0152,0.017,0.0164,0.0316,0.0317,0.0318,0.0213,0.0206,0.0199,0,0,0,0,0,0,-0.0226,-0.02,-0.0186,-0.0187,-0.016,-0.011,-0.0103,-0.0077,-0.003,-0.0023,0.0044,0.0062,0.0105,0.0156,0.0142,0.0212,0.0246,0.025,0.0161,0.0154,0.0148,0.0133,0.0188,0,0,0,0,0,-0.0237,-0.024,-0.0204,-0.0206,-0.0195,-0.0149,-0.0133,-0.0109,-0.0064,-0.0043,0.001,0.0072,0.0124,0.0154,0.021,0.0248,0.029,0.0259,0.0253,0.0247,0.0249,0.0294,0.0291,0.0321,0.0321,0.0321,0,0,-0.0254,-0.0237,-0.024,-0.0213,-0.0187,-0.0177,-0.0138,-0.012,-0.0109,-0.0033,0.0001,0.0054,0.0132,0.017,0.0195,0.0209,0.0261,0.0248,0.0243,0.0248,0.0294,0.0291,0.0288,0.0322,0.0322,0.0322,0,0,-0.0284,-0.0269,-0.0279,-0.026,-0.0229,-0.0201,-0.0201,-0.0154,-0.013,-0.0092,-0.0036,0.0009,0.0092,0.0137,0.0174,0.0174,0.0228,0.0195,0.0151,0.0193,0.019,0.0188,0.0227,0.023,0.019,0.019,0.019,0,-0.0302,-0.0309,-0.0277,-0.0276,-0.0267,-0.0218,-0.0222,-0.019,-0.0132,-0.0112,-0.0094,0.002,0.0076,0.0126,0.0122,0.0158,0.0192,0.0162,0.0181,0.0181,0.0181,0.0222,0.0226,0.0185,0.0185,0.0186,0.0186,0,-0.0336,-0.034,-0.0343,-0.0328,-0.0312,-0.0309,-0.0266,-0.0245,-0.0212,-0.0174,-0.0121,-0.0047,0.002,0.004,0.0081,0.011,0.0137,0.0163,0.0188,0.017,0.0216,0.0222,0.0177,0.0179,0.0181,0.0182,0,0,-0.038,-0.0371,-0.0372,-0.0375,-0.0342,-0.0332,-0.0316,-0.0284,-0.0269,-0.0214,-0.0188,-0.0111,-0.0071,-0.0026,0.0029,0.0062,0.008,0.0103,0.0107,0.0122,0.0171,0.0191,0.02,0.0104,0.0105,0.0105,0.0198,0,-0.0415,-0.0436,-0.0416,-0.0432,-0.044,-0.0395,-0.0383,-0.0345,-0.03,-0.0261,-0.0188,-0.0137,-0.0095,-0.0066,-0.0029,0.0063,0.0094,0.0053,0.0205,0.021,0.0213,0.0207,0.0187,0.0268,0.0204,0.0205,0.0206,0,-0.0454,-0.0463,-0.0493,-0.0487,-0.0485,-0.0483,-0.0454,-0.0435,-0.0367,-0.033,-0.0272,-0.0204,-0.0137,-0.0103,0.0025,-0.0004,0.0072,0.0136,0.0141,0.0205,0.0242,0.0282,0.0283,0.0217,0.0217,0.0216,0.0215,0,-0.0508,-0.0515,-0.0544,-0.0543,-0.0528,-0.0527,-0.0512,-0.0458,-0.0439,-0.037,-0.0343,-0.025,-0.0198,-0.0098,0.0035,0.0031,0.0176,0.0192,0.0281,0.0284,0.0322,0.0326,0.0275,0.0274,0.0274,0.0274,0.0274,0,-0.0559,-0.0579,-0.0572,-0.059,-0.0611,-0.0578,-0.0582,-0.0549,-0.0499,-0.0474,-0.0383,-0.0335,-0.0195,-0.009,0.0023,0.0173,0.0171,0.0276,0.031,0.0284,0.0283,0.0289,0.0289,0.0277,0.0277,0.0276,0.0275,0,-0.0615,-0.0615,-0.0643,-0.064,-0.064,-0.0653,-0.0634,-0.063,-0.0576,-0.054,-0.052,-0.0397,-0.0254,-0.0106,0.007,0.016,0.0301,0.0355,0.0312,0.0339,0.0382,0.0376,0.046,0.0461,0.0462,0.0464,0.0464,0,-0.0647,-0.0671,-0.0685,-0.0703,-0.0704,-0.0714,-0.0718,-0.0676,-0.0663,-0.0569,-0.0553,-0.0413,-0.0295,-0.0033,0.0148,0.0347,0.0349,0.0435,0.0422,0.0377,0.0402,0.0394,0.0386,0.0431,0.0431,0.0431,0.0432,0,-0.07,-0.0704,-0.0724,-0.0761,-0.0777,-0.0792,-0.079,-0.0794,-0.0734,-0.068,-0.0577,-0.0473,-0.0222,-0.0003,0.0241,0.0355,0.0399,0.045,0.0429,0.038,0.0356,0.0377,0.037,0.0436,0.0435,0.0435,0.0435,0.0435,-0.0726,-0.0752,-0.0776,-0.0808,-0.0832,-0.0855,-0.0861,-0.0837,-0.0803,-0.07,-0.06,-0.0405,-0.0215,0.0151,0.0313,0.0464,0.0462,0.0503,0.0499,0.0496,0.0469,0.0447,0.054,0.054,0.054,0.054,0.054,0,-0.075,-0.078,-0.0818,-0.0854,-0.0886,-0.0885,-0.0892,-0.0868,-0.0815,-0.0688,-0.0554,-0.0301,-0.0052,0.0154,0.0395,0.0528,0.0513,0.0547,0.05,0.0495,0.0492,0.0462,0.0533,0.0533,0.0534,0.0534,0,0,-0.0762,-0.0804,-0.0826,-0.0883,-0.0909,-0.0928,-0.0928,-0.0868,-0.0771,-0.0631,-0.047,-0.0271,-0.0024,0.0145,0.0305,0.0428,0.0425,0.0438,0.0431,0.035,0.0344,0.0454,0.0403,0,0,0,0,0]}],[{"header":{"parameterUnit":"m.s-1","parameterCategory":2,"la1":30.2991,"la2":30.254,"lo1":-89.0895,"lo2":-89.0444,"dy":0.0017,"dx":0.0017,"nx":28,"ny":28,"refTime":"2025-11-06T03:00:00:Z","depth":"4","parameterNumber":2,"parameterNumberName":"U-component_of_CURRENTS"},"data":[0,0,0,0,0,0,0,0,0,0,0,0,0,0,0,0,0,0,0,0,0,0,0,0,0,0,0,0,0,0,0,0,0,0,0,0,0,0,0,0,0,0,0,0,0,0,0,0,0,0,0,0,0,0,0,0,0,0,-0.1121,-0.1122,0,-0.1178,-0.1178,-0.1178,-0.1192,-0.1192,-0.1192,-0.1192,-0.1138,-0.1137,-0.1135,0,0,0,0,0,0,0,0,0,0,0,0,0,-0.0953,-0.0955,-0.1121,-0.1123,-0.1124,-0.1178,-0.1178,-0.1178,-0.1192,-0.1192,-0.1192,-0.1193,-0.1139,-0.1137,-0.1135,0,0,0,0,0,0,0,0,0,0,0,0,0,-0.1013,-0.0956,-0.1121,-0.1142,-0.1145,-0.1178,-0.1178,-0.1178,-0.1192,-0.1192,-0.1192,-0.1193,-0.1139,-0.1137,-0.1135,-0.1112,0,0,-0.1127,-0.1126,0,0,0,0,0,0,0,0,-0.101,-0.1018,-0.1138,-0.1141,-0.1144,-0.1184,-0.1099,-0.1153,-0.1192,-0.1167,-0.1192,-0.1193,-0.1147,-0.1144,-0.1146,-0.1109,-0.1107,-0.1127,-0.1125,-0.1124,-0.1123,0,0,0,0,0,0,0,-0.1005,-0.1016,-0.1137,-0.1139,-0.1143,-0.1125,-0.1133,-0.1109,-0.1147,-0.1169,-0.1172,-0.1189,-0.1147,-0.1149,-0.1145,-0.1106,-0.1127,-0.1124,-0.1123,-0.1122,-0.1133,-0.1134,0,0,0,0,0,0,-0.1016,-0.1012,-0.1135,-0.1139,-0.1084,-0.1128,-0.1138,-0.1165,-0.115,-0.1151,-0.1188,-0.1189,-0.1153,-0.1148,-0.1143,-0.1194,-0.1124,-0.1122,-0.112,-0.1131,-0.1133,-0.1135,0,0,0,0,0,0,-0.1012,-0.1027,-0.1133,-0.1081,-0.1094,-0.1132,-0.1162,-0.1167,-0.1191,-0.1167,-0.1164,-0.1213,-0.1153,-0.1146,-0.1153,-0.1189,-0.1121,-0.1118,-0.1129,-0.1131,-0.1134,-0.1246,0,0,0,0,0,0,-0.1007,-0.1025,-0.105,-0.1083,-0.1098,-0.117,-0.1163,-0.1168,-0.1203,-0.1205,-0.1186,-0.1181,-0.1153,-0.1158,-0.1151,-0.1185,-0.1116,-0.1126,-0.113,-0.1133,-0.124,-0.1252,-0.1263,0,0,0,0,0,-0.1001,-0.1038,-0.1051,-0.1067,-0.1131,-0.1172,-0.1177,-0.1199,-0.1204,-0.122,-0.1217,-0.1182,-0.1174,-0.1157,-0.1149,-0.1182,-0.1125,-0.1129,-0.1133,-0.1235,-0.125,-0.1262,0,0,0,0,0,0,-0.0973,-0.1044,-0.1059,-0.1115,-0.1149,-0.1177,-0.1201,-0.1214,-0.1225,-0.1229,-0.1199,-0.1194,-0.1216,-0.1183,-0.1165,-0.1197,-0.1145,-0.1148,-0.1226,-0.124,-0.1251,-0.1252,-0.1114,0,0,0,0,0,-0.0981,-0.103,-0.1081,-0.1124,-0.1147,-0.1176,-0.1197,-0.1215,-0.1231,-0.1238,-0.1231,-0.1222,-0.1222,-0.1219,-0.1207,-0.1218,-0.1193,-0.1236,-0.1247,-0.1257,-0.1254,-0.1281,-0.1295,-0.1148,-0.1148,-0.1148,0,0,-0.0981,-0.1028,-0.1054,-0.1121,-0.1149,-0.1185,-0.1189,-0.1233,-0.1264,-0.1227,-0.1263,-0.1259,-0.1234,-0.1257,-0.1263,-0.1236,-0.1284,-0.1262,-0.1271,-0.1262,-0.1287,-0.1301,-0.1314,-0.1151,-0.115,-0.115,0,0,-0.0998,-0.1049,-0.1091,-0.1126,-0.1185,-0.1206,-0.1226,-0.1271,-0.1294,-0.1325,-0.1317,-0.1345,-0.1328,-0.1337,-0.1333,-0.1396,-0.1345,-0.1389,-0.1445,-0.1473,-0.1485,-0.1496,-0.1474,-0.1482,-0.1394,-0.1394,-0.1394,0,-0.099,-0.1059,-0.1105,-0.1149,-0.1186,-0.122,-0.1263,-0.1288,-0.1329,-0.1357,-0.1349,-0.1384,-0.137,-0.1411,-0.1438,-0.1423,-0.1408,-0.1397,-0.1489,-0.1499,-0.1507,-0.1483,-0.149,-0.14,-0.1399,-0.1399,-0.1398,0,-0.1034,-0.1091,-0.1119,-0.1191,-0.123,-0.1275,-0.1324,-0.1367,-0.1398,-0.1423,-0.1482,-0.1483,-0.1504,-0.1514,-0.149,-0.1554,-0.1512,-0.1503,-0.1456,-0.1529,-0.1498,-0.1503,-0.1409,-0.1406,-0.1405,-0.1403,0,0,-0.1008,-0.1128,-0.1137,-0.1186,-0.1262,-0.1301,-0.1362,-0.1431,-0.1479,-0.152,-0.1578,-0.161,-0.1621,-0.1617,-0.1612,-0.1638,-0.1691,-0.1599,-0.1597,-0.1578,-0.1718,-0.1579,-0.1571,-0.1702,-0.1704,-0.1705,-0.1667,0,-0.1026,-0.1123,-0.1176,-0.1258,-0.1313,-0.1371,-0.1424,-0.1488,-0.1535,-0.1592,-0.1628,-0.1666,-0.1656,-0.1674,-0.1708,-0.1688,-0.1711,-0.1699,-0.1647,-0.1644,-0.1515,-0.1576,-0.1711,-0.167,-0.1672,-0.1672,-0.1673,0,-0.1045,-0.1117,-0.1208,-0.132,-0.1348,-0.1398,-0.1505,-0.1554,-0.1634,-0.1669,-0.1726,-0.1736,-0.1784,-0.1765,-0.1789,-0.1779,-0.176,-0.1745,-0.1743,-0.1575,-0.1517,-0.1583,-0.1682,-0.1681,-0.168,-0.168,-0.1679,0,-0.1015,-0.1134,-0.1216,-0.1253,-0.1376,-0.1434,-0.1495,-0.1584,-0.1625,-0.1714,-0.1739,-0.1804,-0.1816,-0.1834,-0.1799,-0.1801,-0.1799,-0.1798,-0.1657,-0.1645,-0.173,-0.1719,-0.1827,-0.1828,-0.1828,-0.1828,-0.1828,0,-0.1013,-0.1078,-0.1216,-0.126,-0.1351,-0.1438,-0.1521,-0.159,-0.1668,-0.17,-0.1771,-0.1787,-0.1836,-0.1832,-0.1816,-0.1732,-0.1816,-0.1664,-0.1636,-0.1775,-0.177,-0.1732,-0.1722,-0.1826,-0.1827,-0.1827,-0.1827,0,-0.0963,-0.1056,-0.1154,-0.1298,-0.134,-0.1405,-0.1515,-0.1559,-0.1645,-0.1687,-0.1709,-0.1771,-0.1754,-0.1769,-0.1769,-0.1718,-0.1676,-0.163,-0.1746,-0.1724,-0.1498,-0.1494,-0.1472,-0.1467,-0.1463,-0.1459,-0.1456,0,-0.0948,-0.0997,-0.1155,-0.1202,-0.127,-0.1369,-0.1417,-0.1531,-0.1559,-0.1651,-0.1647,-0.1671,-0.1692,-0.1568,-0.1614,-0.1565,-0.1552,-0.1521,-0.1545,-0.1492,-0.1467,-0.1469,-0.1471,-0.145,-0.1448,-0.1447,-0.1446,0,-0.0906,-0.097,-0.1049,-0.114,-0.1213,-0.1278,-0.1356,-0.1365,-0.1469,-0.156,-0.153,-0.1516,-0.1486,-0.1471,-0.1431,-0.141,-0.1542,-0.1477,-0.1487,-0.1509,-0.1464,-0.1444,-0.1451,-0.1432,-0.1434,-0.1435,-0.1436,0,-0.0856,-0.0899,-0.0994,-0.1063,-0.1137,-0.1156,-0.1221,-0.1245,-0.1285,-0.1388,-0.1371,-0.1402,-0.1459,-0.1387,-0.1362,-0.1315,-0.1304,-0.1275,-0.1294,-0.1311,-0.1278,-0.1199,-0.106,0,0,0,0,0,-0.08,-0.0839,-0.09,-0.0974,-0.1032,-0.1068,-0.1156,-0.1216,-0.1316,-0.1249,-0.1305,-0.1271,-0.1228,-0.1252,-0.1167,-0.1294,-0.1313,-0.1193,-0.1292,-0.135,-0.1367,-0.1344,0,0,0,0,0,0,-0.0764,-0.0829,-0.087,-0.0865,-0.088,-0.093,-0.0977,-0.1054,-0.1025,-0.1129,-0.1102,-0.1185,-0.1153,-0.1237,-0.1133,-0.114,-0.1175,-0.1223,-0.1219,-0.1341,-0.1356,-0.137,-0.1351,0,0,0,0,0]},{"header":{"parameterUnit":"m.s-1","parameterCategory":2,"la1":30.2991,"la2":30.254,"lo1":-89.0895,"lo2":-89.0444,"dy":0.0017,"dx":0.0017,"nx":28,"ny":28,"refTime":"2025-11-06T03:00:00:Z","depth":"4","parameterNumber":3,"parameterNumberName":"V-component_of_CURRENTS"},"data":[0,0,0,0,0,0,0,0,0,0,0,0,0,0,0,0,0,0,0,0,0,0,0,0,0,0,0,0,0,0,0,0,0,0,0,0,0,0,0,0,0,0,0,0,0,0,0,0,0,0,0,0,0,0,0,0,0,0,-0.0158,-0.0158,0,-0.0122,-0.0121,-0.0121,-0.0085,-0.0085,-0.0085,-0.0084,-0.0012,-0.001,-0.0008,0,0,0,0,0,0,0,0,0,0,0,0,0,-0.0155,-0.0155,-0.0158,-0.0158,-0.0158,-0.0122,-0.0121,-0.012,-0.0085,-0.0085,-0.0085,-0.0084,-0.0012,-0.001,-0.0008,0,0,0,0,0,0,0,0,0,0,0,0,0,-0.0139,-0.0155,-0.0158,-0.0137,-0.0135,-0.0122,-0.0121,-0.012,-0.0085,-0.0085,-0.0085,-0.0084,-0.0013,-0.001,-0.0008,-0.0,0,0,-0.0,0.0001,0,0,0,0,0,0,0,0,-0.014,-0.0139,-0.0141,-0.0139,-0.0136,-0.0109,-0.0093,-0.0079,-0.0086,-0.0102,-0.0084,-0.0084,-0.0043,-0.0038,-0.0029,0.0003,0.0006,0.0,0.0002,0.0003,0.0003,0,0,0,0,0,0,0,-0.0141,-0.014,-0.0142,-0.014,-0.0138,-0.0115,-0.0113,-0.009,-0.0073,-0.0101,-0.0099,-0.0098,-0.0041,-0.0032,-0.0027,0.0007,-0.0,0.0002,0.0004,0.0005,0.0066,0.0066,0,0,0,0,0,0,-0.0153,-0.0142,-0.0143,-0.0141,-0.014,-0.0116,-0.0113,-0.0117,-0.0074,-0.0068,-0.0098,-0.0096,-0.0036,-0.003,-0.0025,-0.001,0.0003,0.0005,0.0006,0.0066,0.0066,0.0066,0,0,0,0,0,0,-0.0153,-0.0153,-0.0144,-0.0141,-0.0139,-0.0117,-0.0121,-0.0116,-0.0109,-0.0073,-0.0065,-0.0097,-0.0036,-0.0028,-0.0007,-0.0007,0.0006,0.0008,0.0065,0.0066,0.0066,0.0016,0,0,0,0,0,0,-0.0153,-0.0154,-0.0162,-0.0143,-0.014,-0.014,-0.0122,-0.0116,-0.011,-0.0108,-0.0069,-0.0062,-0.0035,-0.0011,-0.0005,-0.0004,0.001,0.0065,0.0065,0.0066,0.0018,0.0015,0.0012,0,0,0,0,0,-0.0153,-0.0167,-0.0162,-0.0162,-0.0151,-0.0141,-0.0137,-0.0118,-0.0111,-0.011,-0.0084,-0.0063,-0.0005,-0.001,-0.0002,0.0,0.0065,0.0065,0.0066,0.0019,0.0015,0.0012,0,0,0,0,0,0,-0.0167,-0.0165,-0.0159,-0.0171,-0.0159,-0.0136,-0.0136,-0.0124,-0.0104,-0.0101,-0.0065,-0.0056,-0.0036,-0.0012,-0.0018,0.002,0.0035,0.0037,-0.0003,-0.0006,-0.0009,-0.0019,0.0013,0,0,0,0,0,-0.0176,-0.0187,-0.0174,-0.0183,-0.018,-0.016,-0.0154,-0.0142,-0.0122,-0.0113,-0.0086,-0.0055,-0.0029,-0.0014,0.0013,0.0029,0.0062,0.0037,0.0035,0.0032,0.003,0.0084,0.0086,0.0066,0.0066,0.0066,0,0,-0.0186,-0.0185,-0.0191,-0.0187,-0.0176,-0.0177,-0.0155,-0.0151,-0.0148,-0.0108,-0.0095,-0.0065,-0.0027,-0.0006,0.0005,0.0013,0.0053,0.0032,0.0029,0.0029,0.0085,0.0087,0.0089,0.0067,0.0067,0.0067,0,0,-0.0208,-0.0208,-0.0223,-0.0217,-0.0208,-0.0194,-0.0196,-0.0176,-0.0163,-0.015,-0.0117,-0.009,-0.0054,-0.0023,-0.0004,-0.0007,0.0036,0.0004,-0.0018,0.0034,0.0036,0.0039,0.0072,0.0078,0.0003,0.0003,0.0003,0,-0.0218,-0.0236,-0.0224,-0.0233,-0.0232,-0.0206,-0.0216,-0.02,-0.0174,-0.016,-0.0153,-0.0089,-0.0062,-0.0027,-0.003,-0.0014,0.0019,-0.0011,0.003,0.0033,0.0036,0.007,0.0077,0.0,0.0001,0.0001,0.0001,0,-0.0248,-0.0262,-0.0269,-0.0273,-0.0269,-0.0274,-0.0252,-0.0242,-0.0226,-0.0202,-0.0166,-0.0125,-0.0086,-0.0072,-0.0056,-0.0019,-0.0003,0.0019,0.0036,0.0035,0.0071,0.0079,-0.0003,-0.0002,-0.0001,-0.0001,0,0,-0.0272,-0.029,-0.0292,-0.0302,-0.0293,-0.0292,-0.0287,-0.0269,-0.026,-0.0226,-0.0205,-0.0162,-0.0131,-0.0107,-0.0072,-0.0032,0.0008,-0.0004,-0.0001,0.0023,0.0115,0.0093,0.01,0.0041,0.0043,0.0044,0.0127,0,-0.0299,-0.0334,-0.0329,-0.0352,-0.0367,-0.0342,-0.0338,-0.0315,-0.0286,-0.0256,-0.0203,-0.0169,-0.0145,-0.0126,-0.0082,-0.0012,0.0029,-0.0018,0.0118,0.0121,0.0097,0.0108,0.0048,0.0133,0.0135,0.0137,0.0138,0,-0.0328,-0.0349,-0.0387,-0.0396,-0.0399,-0.0405,-0.039,-0.0381,-0.0329,-0.0303,-0.0254,-0.0205,-0.0147,-0.0124,-0.0006,-0.0034,0.0032,0.0087,0.0092,0.0095,0.0114,0.0139,0.0153,0.0152,0.015,0.0149,0.0149,0,-0.0358,-0.0385,-0.042,-0.0425,-0.0432,-0.0438,-0.0435,-0.0397,-0.0386,-0.0328,-0.0306,-0.0223,-0.0184,-0.0085,0.0015,0.0012,0.015,0.0165,0.021,0.0209,0.0225,0.0222,0.0256,0.0256,0.0255,0.0255,0.0255,0,-0.039,-0.0416,-0.044,-0.0461,-0.049,-0.0476,-0.0486,-0.0465,-0.0428,-0.0408,-0.0334,-0.0294,-0.017,-0.0078,0.0017,0.0131,0.0156,0.0206,0.0232,0.0201,0.0194,0.0231,0.0227,0.0258,0.0258,0.0257,0.0257,0,-0.0418,-0.0438,-0.0478,-0.0502,-0.0511,-0.0531,-0.0534,-0.0531,-0.0491,-0.0462,-0.0445,-0.0342,-0.0223,-0.0098,0.0063,0.0123,0.0242,0.0279,0.0223,0.0245,0.0264,0.0256,0.0336,0.0336,0.0336,0.0335,0.0335,0,-0.0436,-0.0464,-0.0514,-0.0542,-0.0558,-0.0583,-0.0596,-0.057,-0.0559,-0.0485,-0.0469,-0.0356,-0.0275,-0.0064,0.0059,0.0237,0.026,0.031,0.0294,0.0257,0.0274,0.0267,0.026,0.0335,0.0335,0.0335,0.0335,0,-0.0465,-0.0489,-0.0525,-0.0583,-0.0615,-0.0641,-0.0652,-0.065,-0.0606,-0.0573,-0.047,-0.0354,-0.0223,-0.0066,0.0067,0.0196,0.027,0.0311,0.0311,0.0297,0.0258,0.0273,0.0266,0.0335,0.0335,0.0335,0.0335,0,-0.048,-0.0516,-0.0567,-0.0611,-0.0657,-0.0679,-0.0684,-0.0653,-0.0632,-0.0543,-0.0511,-0.0354,-0.0262,-0.0086,0.0041,0.0156,0.0184,0.0212,0.0219,0.022,0.0155,0.0087,0.0136,0,0,0,0,0,-0.0487,-0.0534,-0.0585,-0.0636,-0.068,-0.0698,-0.0709,-0.07,-0.0661,-0.0591,-0.0545,-0.0413,-0.0214,-0.0123,-0.001,0.0023,0.0185,0.0156,0.0216,0.0335,0.0335,0.0276,0,0,0,0,0,0,-0.0494,-0.0557,-0.0587,-0.064,-0.0675,-0.0712,-0.072,-0.0696,-0.0644,-0.0589,-0.0476,-0.0401,-0.0205,-0.0275,-0.001,0.0024,0.0074,0.0256,0.0258,0.0335,0.0335,0.0335,0.0274,0,0,0,0,0]}]]